Time,TemperatureF,DewpointF,PressureIn,WindDirection,WindDirectionDegrees,WindSpeedMPH,WindSpeedGustMPH,Humidity,HourlyPrecipIn,Conditions,Clouds,dailyrainin,SoftwareType,DateUTC
2013-01-21 00:00:00,45.8,42.2,30.17,ESE,109,0.0,2.0,87,0.00,,SKC,0.00,VWS V14.01,2013-01-21 06:00:00,
2013-01-21 00:01:00,45.8,42.2,30.17,ESE,109,0.0,2.0,87,0.00,,SKC,0.00,VWS V14.01,2013-01-21 06:01:00,
2013-01-21 00:08:00,44.7,40.8,30.17,ESE,109,0.0,0.0,86,0.00,,SKC,0.00,VWS V14.01,2013-01-21 06:08:00,
2013-01-21 00:14:00,44.3,40.7,30.17,ESE,109,0.0,1.0,87,0.00,,SKC,0.00,VWS V14.01,2013-01-21 06:14:00,
2013-01-21 00:20:00,43.7,40.4,30.17,ESE,109,0.0,2.0,88,0.00,,SKC,0.00,VWS V14.01,2013-01-21 06:20:00,
2013-01-21 00:26:00,43.7,40.7,30.17,ESE,109,0.0,2.0,89,0.00,,SKC,0.00,VWS V14.01,2013-01-21 06:26:00,
2013-01-21 00:30:00,43.6,40.6,30.17,ESE,109,0.0,2.0,89,0.00,,SKC,0.00,VWS V14.01,2013-01-21 06:30:00,
2013-01-21 00:32:00,43.7,41.0,30.17,ESE,109,0.0,0.0,90,0.00,,SKC,0.00,VWS V14.01,2013-01-21 06:32:00,
2013-01-21 00:38:00,44.5,42.0,30.17,ESE,109,1.0,2.0,91,0.00,,SKC,0.00,VWS V14.01,2013-01-21 06:38:00,
2013-01-21 00:44:00,45.7,43.2,30.17,ESE,109,0.0,2.0,91,0.00,,SKC,0.00,VWS V14.01,2013-01-21 06:44:00,
2013-01-21 00:50:00,44.6,41.3,30.17,ESE,109,0.0,2.0,88,0.00,,SKC,0.00,VWS V14.01,2013-01-21 06:50:00,
2013-01-21 00:56:00,43.8,40.8,30.17,ESE,109,0.0,2.0,89,0.00,,SKC,0.00,VWS V14.01,2013-01-21 06:56:00,
2013-01-21 01:00:00,43.5,40.5,30.18,ESE,109,0.0,2.0,89,0.00,,SKC,0.00,VWS V14.01,2013-01-21 07:00:00,
2013-01-21 01:02:00,43.5,40.5,30.18,ESE,109,0.0,0.0,89,0.00,,SKC,0.00,VWS V14.01,2013-01-21 07:02:00,
2013-01-21 01:08:00,43.2,40.5,30.18,ESE,109,1.0,1.0,90,0.00,,SKC,0.00,VWS V14.01,2013-01-21 07:08:00,
2013-01-21 01:14:00,43.0,40.3,30.17,ESE,109,0.0,1.0,90,0.00,,SKC,0.00,VWS V14.01,2013-01-21 07:14:00,
2013-01-21 01:20:00,42.2,39.5,30.17,ESE,109,1.0,1.0,90,0.00,,SKC,0.00,VWS V14.01,2013-01-21 07:20:00,
2013-01-21 01:26:00,42.4,40.0,30.17,ESE,109,0.0,1.0,91,0.00,,SKC,0.00,VWS V14.01,2013-01-21 07:26:00,
2013-01-21 01:30:00,42.8,40.6,30.17,ESE,109,0.0,1.0,92,0.00,,SKC,0.00,VWS V14.01,2013-01-21 07:30:00,
2013-01-21 01:32:00,43.0,40.8,30.17,ESE,109,0.0,0.0,92,0.00,,SKC,0.00,VWS V14.01,2013-01-21 07:32:00,
2013-01-21 01:38:00,43.3,41.1,30.17,ESE,109,0.0,1.0,92,0.00,,SKC,0.00,VWS V14.01,2013-01-21 07:38:00,
2013-01-21 01:44:00,43.5,41.3,30.17,ESE,109,0.0,1.0,92,0.00,,SKC,0.00,VWS V14.01,2013-01-21 07:44:00,
2013-01-21 01:50:00,43.3,40.8,30.17,ESE,109,1.0,1.0,91,0.00,,SKC,0.00,VWS V14.01,2013-01-21 07:50:00,
2013-01-21 01:56:00,42.8,40.4,30.17,ESE,109,0.0,1.0,91,0.00,,SKC,0.00,VWS V14.01,2013-01-21 07:56:00,
2013-01-21 02:00:00,42.8,40.4,30.17,ESE,109,1.0,1.0,91,0.00,,SKC,0.00,VWS V14.01,2013-01-21 08:00:00,
2013-01-21 02:02:00,42.7,40.3,30.17,ESE,109,0.0,1.0,91,0.00,,SKC,0.00,VWS V14.01,2013-01-21 08:02:00,
2013-01-21 02:08:00,42.7,40.5,30.17,ESE,109,0.0,1.0,92,0.00,,SKC,0.00,VWS V14.01,2013-01-21 08:08:00,
2013-01-21 02:15:00,43.0,40.8,30.18,ESE,109,0.0,1.0,92,0.00,,SKC,0.00,VWS V14.01,2013-01-21 08:15:00,
2013-01-21 02:21:00,42.9,40.7,30.18,ESE,109,0.0,1.0,92,0.00,,SKC,0.00,VWS V14.01,2013-01-21 08:21:00,
2013-01-21 02:27:00,42.7,40.5,30.18,ESE,109,0.0,1.0,92,0.00,,SKC,0.00,VWS V14.01,2013-01-21 08:27:00,
2013-01-21 02:30:00,42.5,40.3,30.18,ESE,109,0.0,1.0,92,0.00,,SKC,0.00,VWS V14.01,2013-01-21 08:30:00,
2013-01-21 02:33:00,42.5,40.3,30.18,ESE,109,0.0,0.0,92,0.00,,SKC,0.00,VWS V14.01,2013-01-21 08:33:00,
2013-01-21 02:39:00,42.6,40.4,30.18,ESE,109,0.0,0.0,92,0.00,,SKC,0.00,VWS V14.01,2013-01-21 08:39:00,
2013-01-21 02:45:00,41.9,39.8,30.18,ESE,109,0.0,1.0,92,0.00,,SKC,0.00,VWS V14.01,2013-01-21 08:45:00,
2013-01-21 02:51:00,41.8,39.7,30.18,ESE,109,0.0,1.0,92,0.00,,SKC,0.00,VWS V14.01,2013-01-21 08:51:00,
2013-01-21 02:57:00,41.8,39.7,30.18,ESE,109,0.0,1.0,92,0.00,,SKC,0.00,VWS V14.01,2013-01-21 08:57:00,
2013-01-21 03:00:00,41.5,39.3,30.18,ESE,109,0.0,1.0,92,0.00,,SKC,0.00,VWS V14.01,2013-01-21 09:00:00,
2013-01-21 03:03:00,41.5,39.6,30.18,ESE,109,0.0,0.0,93,0.00,,SKC,0.00,VWS V14.01,2013-01-21 09:03:00,
2013-01-21 03:09:00,42.4,40.5,30.19,ESE,109,1.0,1.0,93,0.00,,SKC,0.00,VWS V14.01,2013-01-21 09:09:00,
2013-01-21 03:15:00,43.4,41.8,30.19,NE,54,1.0,2.0,94,0.00,,SKC,0.00,VWS V14.01,2013-01-21 09:15:00,
2013-01-21 03:24:00,41.9,39.8,30.19,NE,54,0.0,2.0,92,0.00,,SKC,0.00,VWS V14.01,2013-01-21 09:24:00,
2013-01-21 03:30:00,42.5,40.9,30.19,West,266,1.0,5.0,94,0.00,,SKC,0.00,VWS V14.01,2013-01-21 09:30:00,
2013-01-21 03:39:00,43.8,42.2,30.20,NNE,32,1.0,4.0,94,0.00,,SKC,0.00,VWS V14.01,2013-01-21 09:39:00,
2013-01-21 03:45:00,43.8,41.9,30.20,WNW,294,0.0,5.0,93,0.00,,SKC,0.00,VWS V14.01,2013-01-21 09:45:00,
2013-01-21 03:51:00,44.2,42.6,30.19,NNE,23,2.0,5.0,94,0.00,,SKC,0.00,VWS V14.01,2013-01-21 09:51:00,
2013-01-21 03:57:00,44.5,42.6,30.19,NNE,28,1.0,5.0,93,0.00,,SKC,0.00,VWS V14.01,2013-01-21 09:57:00,
2013-01-21 04:00:00,44.5,42.6,30.19,NE,51,3.0,5.0,93,0.00,,SKC,0.00,VWS V14.01,2013-01-21 10:00:00,
2013-01-21 04:03:00,44.6,43.0,30.19,NE,46,1.0,3.0,94,0.00,,SKC,0.00,VWS V14.01,2013-01-21 10:03:00,
2013-01-21 04:09:00,44.9,43.0,30.19,NE,53,3.0,5.0,93,0.00,,SKC,0.00,VWS V14.01,2013-01-21 10:09:00,
2013-01-21 04:15:00,44.8,42.9,30.19,ENE,74,1.0,5.0,93,0.00,,SKC,0.00,VWS V14.01,2013-01-21 10:15:00,
2013-01-21 04:21:00,44.6,42.7,30.19,NNE,21,3.0,5.0,93,0.00,,SKC,0.00,VWS V14.01,2013-01-21 10:21:00,
2013-01-21 04:27:00,44.3,42.4,30.19,ENE,70,2.0,6.0,93,0.00,,SKC,0.00,VWS V14.01,2013-01-21 10:27:00,
2013-01-21 04:30:00,44.2,42.0,30.19,WNW,289,2.0,6.0,92,0.00,,SKC,0.00,VWS V14.01,2013-01-21 10:30:00,
2013-01-21 04:33:00,44.1,41.9,30.19,WSW,238,2.0,4.0,92,0.00,,SKC,0.00,VWS V14.01,2013-01-21 10:33:00,
2013-01-21 04:40:00,43.9,41.7,30.20,NNE,33,2.0,5.0,92,0.00,,SKC,0.00,VWS V14.01,2013-01-21 10:40:00,
2013-01-21 04:46:00,43.7,41.5,30.20,NNE,33,2.0,5.0,92,0.00,,SKC,0.00,VWS V14.01,2013-01-21 10:46:00,
2013-01-21 04:52:00,43.5,41.0,30.20,NNW,338,2.0,8.0,91,0.00,,SKC,0.00,VWS V14.01,2013-01-21 10:52:00,
2013-01-21 04:58:00,43.3,40.8,30.20,North,5,2.0,8.0,91,0.00,,SKC,0.00,VWS V14.01,2013-01-21 10:58:00,
2013-01-21 05:00:00,43.2,40.8,30.20,NNW,331,3.0,8.0,91,0.00,,SKC,0.00,VWS V14.01,2013-01-21 11:00:00,
2013-01-21 05:04:00,43.1,40.4,30.20,NNE,26,4.0,8.0,90,0.00,,SKC,0.00,VWS V14.01,2013-01-21 11:04:00,
2013-01-21 05:10:00,42.9,39.9,30.21,ENE,63,2.0,10.0,89,0.00,,SKC,0.00,VWS V14.01,2013-01-21 11:10:00,
2013-01-21 05:16:00,42.8,39.8,30.21,North,5,4.0,10.0,89,0.00,,SKC,0.00,VWS V14.01,2013-01-21 11:16:00,
2013-01-21 05:22:00,42.5,39.2,30.21,East,96,3.0,10.0,88,0.00,,SKC,0.00,VWS V14.01,2013-01-21 11:22:00,
2013-01-21 05:28:00,42.3,38.7,30.22,WNW,292,4.0,10.0,87,0.00,,SKC,0.00,VWS V14.01,2013-01-21 11:28:00,
2013-01-21 05:30:00,42.2,38.0,30.22,NNE,23,5.0,10.0,85,0.00,,SKC,0.00,VWS V14.01,2013-01-21 11:30:00,
2013-01-21 05:34:00,42.1,37.6,30.22,ENE,78,3.0,12.0,84,0.00,,SKC,0.00,VWS V14.01,2013-01-21 11:34:00,
2013-01-21 05:40:00,41.8,37.0,30.22,NW,311,1.0,12.0,83,0.00,,SKC,0.00,VWS V14.01,2013-01-21 11:40:00,
2013-01-21 05:46:00,41.5,36.7,30.23,NNE,30,1.0,12.0,83,0.00,,SKC,0.00,VWS V14.01,2013-01-21 11:46:00,
2013-01-21 05:52:00,41.3,36.5,30.24,NE,54,4.0,12.0,83,0.00,,SKC,0.00,VWS V14.01,2013-01-21 11:52:00,
2013-01-21 05:58:00,41.0,35.9,30.24,WNW,300,3.0,12.0,82,0.00,,SKC,0.00,VWS V14.01,2013-01-21 11:58:00,
2013-01-21 06:00:00,40.9,35.5,30.24,NE,48,1.0,12.0,81,0.00,,SKC,0.00,VWS V14.01,2013-01-21 12:00:00,
2013-01-21 06:04:00,40.7,35.3,30.24,ESE,104,2.0,7.0,81,0.00,,SKC,0.00,VWS V14.01,2013-01-21 12:04:00,
2013-01-21 06:10:00,40.4,34.7,30.24,ENE,60,2.0,7.0,80,0.00,,SKC,0.00,VWS V14.01,2013-01-21 12:10:00,
2013-01-21 06:16:00,40.2,34.2,30.24,NNE,19,7.0,7.0,79,0.00,,SKC,0.00,VWS V14.01,2013-01-21 12:16:00,
2013-01-21 06:22:00,39.8,33.5,30.24,NNE,25,2.0,7.0,78,0.00,,SKC,0.00,VWS V14.01,2013-01-21 12:22:00,
2013-01-21 06:28:00,39.6,33.3,30.24,NNW,336,2.0,7.0,78,0.00,,SKC,0.00,VWS V14.01,2013-01-21 12:28:00,
2013-01-21 06:30:00,39.5,33.2,30.24,NE,41,3.0,7.0,78,0.00,,SKC,0.00,VWS V14.01,2013-01-21 12:30:00,
2013-01-21 06:34:00,39.4,33.1,30.25,ENE,71,2.0,5.0,78,0.00,,SKC,0.00,VWS V14.01,2013-01-21 12:34:00,
2013-01-21 06:40:00,39.1,32.8,30.25,NNW,327,1.0,5.0,78,0.00,,SKC,0.00,VWS V14.01,2013-01-21 12:40:00,
2013-01-21 06:46:00,39.0,32.7,30.25,ENE,58,4.0,6.0,78,0.00,,SKC,0.00,VWS V14.01,2013-01-21 12:46:00,
2013-01-21 06:52:00,39.0,32.4,30.26,North,360,4.0,10.0,77,0.00,,SKC,0.00,VWS V14.01,2013-01-21 12:52:00,
2013-01-21 06:58:00,38.9,32.0,30.26,SE,133,2.0,10.0,76,0.00,,SKC,0.00,VWS V14.01,2013-01-21 12:58:00,
2013-01-21 07:00:00,38.8,31.6,30.26,NE,47,2.0,10.0,75,0.00,,SKC,0.00,VWS V14.01,2013-01-21 13:00:00,
2013-01-21 07:04:00,38.7,31.5,30.26,NE,42,6.0,8.0,75,0.00,,SKC,0.00,VWS V14.01,2013-01-21 13:04:00,
2013-01-21 07:10:00,38.6,31.0,30.26,NNE,31,3.0,9.0,74,0.00,,SKC,0.00,VWS V14.01,2013-01-21 13:10:00,
2013-01-21 07:16:00,38.4,30.9,30.26,ENE,61,1.0,9.0,74,0.00,,SKC,0.00,VWS V14.01,2013-01-21 13:16:00,
2013-01-21 07:22:00,38.2,30.7,30.26,ENE,73,7.0,9.0,74,0.00,,SKC,0.00,VWS V14.01,2013-01-21 13:22:00,
2013-01-21 07:28:00,38.2,30.3,30.27,NW,314,3.0,9.0,73,0.00,,SKC,0.00,VWS V14.01,2013-01-21 13:28:00,
2013-01-21 07:30:00,38.1,30.2,30.27,WNW,294,3.0,9.0,73,0.00,,SKC,0.00,VWS V14.01,2013-01-21 13:30:00,
2013-01-21 07:34:00,38.1,30.2,30.27,West,281,7.0,7.0,73,0.00,,SKC,0.00,VWS V14.01,2013-01-21 13:34:00,
2013-01-21 07:40:00,38.0,30.1,30.27,NE,34,3.0,7.0,73,0.00,,SKC,0.00,VWS V14.01,2013-01-21 13:40:00,
2013-01-21 07:46:00,38.1,29.9,30.27,ENE,71,7.0,8.0,72,0.00,,SKC,0.00,VWS V14.01,2013-01-21 13:46:00,
2013-01-21 07:52:00,38.3,30.1,30.28,NNE,26,1.0,8.0,72,0.00,,SKC,0.00,VWS V14.01,2013-01-21 13:52:00,
2013-01-21 07:58:00,38.6,30.0,30.28,NNE,32,2.0,8.0,71,0.00,,SKC,0.00,VWS V14.01,2013-01-21 13:58:00,
2013-01-21 08:00:00,38.7,30.1,30.28,East,81,1.0,8.0,71,0.00,,SKC,0.00,VWS V14.01,2013-01-21 14:00:00,
2013-01-21 08:04:00,39.0,30.4,30.28,ESE,105,1.0,4.0,71,0.00,,SKC,0.00,VWS V14.01,2013-01-21 14:04:00,
2013-01-21 08:10:00,39.2,29.9,30.28,West,279,3.0,8.0,69,0.00,,SKC,0.00,VWS V14.01,2013-01-21 14:10:00,
2013-01-21 08:16:00,39.5,30.2,30.29,ENE,78,2.0,8.0,69,0.00,,SKC,0.00,VWS V14.01,2013-01-21 14:16:00,
2013-01-21 08:23:00,39.8,30.8,30.29,NNE,31,3.0,8.0,70,0.00,,SKC,0.00,VWS V14.01,2013-01-21 14:23:00,
2013-01-21 08:29:00,40.0,30.3,30.29,ENE,75,3.0,9.0,68,0.00,,SKC,0.00,VWS V14.01,2013-01-21 14:29:00,
2013-01-21 08:30:00,40.1,30.0,30.29,NE,36,2.0,9.0,67,0.00,,SKC,0.00,VWS V14.01,2013-01-21 14:30:00,
2013-01-21 08:35:00,40.3,30.2,30.29,NNE,28,5.0,6.0,67,0.00,,SKC,0.00,VWS V14.01,2013-01-21 14:35:00,
2013-01-21 08:41:00,40.5,29.7,30.30,NNW,338,3.0,7.0,65,0.00,,SKC,0.00,VWS V14.01,2013-01-21 14:41:00,
2013-01-21 08:47:00,40.7,29.5,30.30,NNE,26,3.0,8.0,64,0.00,,SKC,0.00,VWS V14.01,2013-01-21 14:47:00,
2013-01-21 08:53:00,40.9,29.7,30.30,North,5,2.0,8.0,64,0.00,,SKC,0.00,VWS V14.01,2013-01-21 14:53:00,
2013-01-21 08:59:00,41.1,29.5,30.31,ENE,76,1.0,8.0,63,0.00,,SKC,0.00,VWS V14.01,2013-01-21 14:59:00,
2013-01-21 09:00:00,41.3,29.7,30.31,NE,46,2.0,8.0,63,0.00,,SKC,0.00,VWS V14.01,2013-01-21 15:00:00,
2013-01-21 09:05:00,41.8,30.1,30.31,NNE,30,4.0,7.0,63,0.00,,SKC,0.00,VWS V14.01,2013-01-21 15:05:00,
2013-01-21 09:11:00,42.4,30.3,30.31,NW,317,6.0,9.0,62,0.00,,SKC,0.00,VWS V14.01,2013-01-21 15:11:00,
2013-01-21 09:17:00,42.7,30.6,30.31,NNE,32,1.0,9.0,62,0.00,,SKC,0.00,VWS V14.01,2013-01-21 15:17:00,
2013-01-21 09:23:00,42.9,30.0,30.32,WSW,254,2.0,9.0,60,0.00,,SKC,0.00,VWS V14.01,2013-01-21 15:23:00,
2013-01-21 09:29:00,42.5,29.6,30.32,SW,234,3.0,9.0,60,0.00,,SKC,0.00,VWS V14.01,2013-01-21 15:29:00,
2013-01-21 09:30:00,42.6,30.1,30.32,NE,44,1.0,9.0,61,0.00,,SKC,0.00,VWS V14.01,2013-01-21 15:30:00,
2013-01-21 09:35:00,42.8,29.9,30.32,WNW,298,6.0,10.0,60,0.00,,SKC,0.00,VWS V14.01,2013-01-21 15:35:00,
2013-01-21 09:41:00,43.2,30.7,30.32,NE,47,3.0,10.0,61,0.00,,SKC,0.00,VWS V14.01,2013-01-21 15:41:00,
2013-01-21 09:47:00,43.9,30.5,30.32,North,355,3.0,10.0,59,0.00,,SKC,0.00,VWS V14.01,2013-01-21 15:47:00,
2013-01-21 09:53:00,43.8,30.4,30.32,NNW,333,2.0,10.0,59,0.00,,SKC,0.00,VWS V14.01,2013-01-21 15:53:00,
2013-01-21 09:59:00,44.5,31.1,30.32,NE,35,2.0,10.0,59,0.00,,SKC,0.00,VWS V14.01,2013-01-21 15:59:00,
2013-01-21 10:00:00,44.7,31.3,30.32,NNE,32,4.0,10.0,59,0.00,,SKC,0.00,VWS V14.01,2013-01-21 16:00:00,
2013-01-21 10:05:00,45.1,31.2,30.33,NE,55,2.0,6.0,58,0.00,,SKC,0.00,VWS V14.01,2013-01-21 16:05:00,
2013-01-21 10:11:00,45.3,31.0,30.33,WNW,300,3.0,6.0,57,0.00,,SKC,0.00,VWS V14.01,2013-01-21 16:11:00,
2013-01-21 10:17:00,45.4,31.1,30.33,East,88,2.0,7.0,57,0.00,,SKC,0.00,VWS V14.01,2013-01-21 16:17:00,
2013-01-21 10:23:00,45.7,30.9,30.34,NNW,328,3.0,7.0,56,0.00,,SKC,0.00,VWS V14.01,2013-01-21 16:23:00,
2013-01-21 10:29:00,46.1,31.3,30.34,NNE,13,4.0,7.0,56,0.00,,SKC,0.00,VWS V14.01,2013-01-21 16:29:00,
2013-01-21 10:30:00,46.1,30.9,30.34,North,5,3.0,7.0,55,0.00,,SKC,0.00,VWS V14.01,2013-01-21 16:30:00,
2013-01-21 10:35:00,45.8,30.1,30.34,NNE,25,3.0,9.0,54,0.00,,SKC,0.00,VWS V14.01,2013-01-21 16:35:00,
2013-01-21 10:41:00,46.2,31.4,30.34,NNW,336,4.0,9.0,56,0.00,,SKC,0.00,VWS V14.01,2013-01-21 16:41:00,
2013-01-21 10:47:00,47.0,32.1,30.34,NW,314,2.0,9.0,56,0.00,,SKC,0.00,VWS V14.01,2013-01-21 16:47:00,
2013-01-21 10:53:00,46.9,31.1,30.34,NW,321,6.0,10.0,54,0.00,,SKC,0.00,VWS V14.01,2013-01-21 16:53:00,
2013-01-21 10:59:00,47.6,32.2,30.34,North,5,2.0,10.0,55,0.00,,SKC,0.00,VWS V14.01,2013-01-21 16:59:00,
2013-01-21 11:00:00,47.7,31.9,30.34,East,98,2.0,10.0,54,0.00,,SKC,0.00,VWS V14.01,2013-01-21 17:00:00,
2013-01-21 11:05:00,48.1,31.8,30.34,East,94,2.0,6.0,53,0.00,,SKC,0.00,VWS V14.01,2013-01-21 17:05:00,
2013-01-21 11:11:00,48.2,32.3,30.34,WNW,298,2.0,6.0,54,0.00,,SKC,0.00,VWS V14.01,2013-01-21 17:11:00,
2013-01-21 11:17:00,49.4,33.5,30.34,ENE,66,2.0,6.0,54,0.00,,SKC,0.00,VWS V14.01,2013-01-21 17:17:00,
2013-01-21 11:23:00,49.9,33.0,30.34,NNW,340,2.0,6.0,52,0.00,,SKC,0.00,VWS V14.01,2013-01-21 17:23:00,
2013-01-21 11:29:00,50.0,33.1,30.34,SE,142,2.0,6.0,52,0.00,,SKC,0.00,VWS V14.01,2013-01-21 17:29:00,
2013-01-21 11:30:00,50.0,32.6,30.34,NNE,13,1.0,6.0,51,0.00,,SKC,0.00,VWS V14.01,2013-01-21 17:30:00,
2013-01-21 11:35:00,50.3,32.9,30.34,NW,310,0.0,7.0,51,0.00,,SKC,0.00,VWS V14.01,2013-01-21 17:35:00,
2013-01-21 11:41:00,50.6,33.6,30.34,NW,325,2.0,7.0,52,0.00,,SKC,0.00,VWS V14.01,2013-01-21 17:41:00,
2013-01-21 11:47:00,50.8,33.8,30.34,WNW,300,1.0,7.0,52,0.00,,SKC,0.00,VWS V14.01,2013-01-21 17:47:00,
2013-01-21 11:53:00,51.2,33.7,30.33,NE,42,2.0,7.0,51,0.00,,SKC,0.00,VWS V14.01,2013-01-21 17:53:00,
2013-01-21 11:59:00,51.9,34.4,30.33,North,355,3.0,7.0,51,0.00,,SKC,0.00,VWS V14.01,2013-01-21 17:59:00,
2013-01-21 12:00:00,52.0,34.0,30.33,NNE,15,2.0,7.0,50,0.00,,SKC,0.00,VWS V14.01,2013-01-21 18:00:00,
2013-01-21 12:05:00,52.3,34.7,30.33,ENE,57,3.0,6.0,51,0.00,,SKC,0.00,VWS V14.01,2013-01-21 18:05:00,
2013-01-21 12:11:00,52.4,35.3,30.32,NE,44,3.0,8.0,52,0.00,,SKC,0.00,VWS V14.01,2013-01-21 18:11:00,
2013-01-21 12:17:00,52.6,35.0,30.32,NW,316,2.0,8.0,51,0.00,,SKC,0.00,VWS V14.01,2013-01-21 18:17:00,
2013-01-21 12:23:00,53.3,35.2,30.32,NE,49,4.0,8.0,50,0.00,,SKC,0.00,VWS V14.01,2013-01-21 18:23:00,
2013-01-21 12:29:00,54.0,36.3,30.31,NW,312,3.0,8.0,51,0.00,,SKC,0.00,VWS V14.01,2013-01-21 18:29:00,
2013-01-21 12:30:00,54.2,36.0,30.31,North,5,1.0,8.0,50,0.00,,SKC,0.00,VWS V14.01,2013-01-21 18:30:00,
2013-01-21 12:35:00,54.4,35.7,30.31,NNW,335,2.0,5.0,49,0.00,,SKC,0.00,VWS V14.01,2013-01-21 18:35:00,
2013-01-21 12:41:00,54.4,36.7,30.31,NNE,23,3.0,8.0,51,0.00,,SKC,0.00,VWS V14.01,2013-01-21 18:41:00,
2013-01-21 12:47:00,54.8,37.5,30.30,NE,42,4.0,8.0,52,0.00,,SKC,0.00,VWS V14.01,2013-01-21 18:47:00,
2013-01-21 12:53:00,55.5,36.7,30.30,ENE,71,2.0,10.0,49,0.00,,SKC,0.00,VWS V14.01,2013-01-21 18:53:00,
2013-01-21 12:59:00,56.0,37.1,30.30,NNE,19,1.0,10.0,49,0.00,,SKC,0.00,VWS V14.01,2013-01-21 18:59:00,
2013-01-21 13:00:00,56.2,37.3,30.29,NE,40,1.0,10.0,49,0.00,,SKC,0.00,VWS V14.01,2013-01-21 19:00:00,
2013-01-21 13:05:00,56.3,37.4,30.29,NW,304,0.0,6.0,49,0.00,,SKC,0.00,VWS V14.01,2013-01-21 19:05:00,
2013-01-21 13:11:00,56.6,38.2,30.29,NE,53,2.0,6.0,50,0.00,,SKC,0.00,VWS V14.01,2013-01-21 19:11:00,
2013-01-21 13:30:00,57.6,38.1,30.28,NE,45,2.0,8.0,48,0.00,,SKC,0.00,VWS V14.01,2013-01-21 19:30:00,
2013-01-21 14:00:00,58.6,38.5,30.28,NW,315,2.0,7.0,47,0.00,,SKC,0.00,VWS V14.01,2013-01-21 20:00:00,
2013-01-21 14:30:00,59.0,39.4,30.28,NW,315,2.0,7.0,48,0.00,,SKC,0.00,VWS V14.01,2013-01-21 20:30:00,
2013-01-21 15:00:00,59.3,39.1,30.27,NW,311,1.0,7.0,47,0.00,,SKC,0.00,VWS V14.01,2013-01-21 21:00:00,
2013-01-21 15:23:00,60.0,39.7,30.27,NW,319,0.0,6.0,47,0.00,,SKC,0.00,VWS V14.01,2013-01-21 21:23:00,
2013-01-21 15:29:00,60.0,39.7,30.27,ENE,67,1.0,6.0,47,0.00,,SKC,0.00,VWS V14.01,2013-01-21 21:29:00,
2013-01-21 15:30:00,58.8,38.6,30.27,WNW,296,2.0,6.0,47,0.00,,SKC,0.00,VWS V14.01,2013-01-21 21:30:00,
2013-01-21 15:35:00,59.8,39.5,30.27,North,355,1.0,6.0,47,0.00,,SKC,0.00,VWS V14.01,2013-01-21 21:35:00,
2013-01-21 15:41:00,59.7,39.5,30.27,NW,304,2.0,6.0,47,0.00,,SKC,0.00,VWS V14.01,2013-01-21 21:41:00,
2013-01-21 15:47:00,59.6,39.4,30.27,NW,315,3.0,6.0,47,0.00,,SKC,0.00,VWS V14.01,2013-01-21 21:47:00,
2013-01-21 15:53:00,59.7,39.5,30.27,WSW,242,2.0,6.0,47,0.00,,SKC,0.00,VWS V14.01,2013-01-21 21:53:00,
2013-01-21 15:59:00,59.4,39.2,30.27,WNW,298,2.0,7.0,47,0.00,,SKC,0.00,VWS V14.01,2013-01-21 21:59:00,
2013-01-21 16:00:00,59.3,39.1,30.27,NW,311,1.0,7.0,47,0.00,,SKC,0.00,VWS V14.01,2013-01-21 22:00:00,
2013-01-21 16:05:00,59.3,39.1,30.27,WNW,290,2.0,5.0,47,0.00,,SKC,0.00,VWS V14.01,2013-01-21 22:05:00,
2013-01-21 16:11:00,59.2,39.0,30.27,NE,42,1.0,5.0,47,0.00,,SKC,0.00,VWS V14.01,2013-01-21 22:11:00,
2013-01-21 16:18:00,59.0,38.8,30.27,NNE,32,2.0,5.0,47,0.00,,SKC,0.00,VWS V14.01,2013-01-21 22:18:00,
2013-01-21 16:24:00,58.9,38.7,30.27,WNW,300,1.0,6.0,47,0.00,,SKC,0.00,VWS V14.01,2013-01-21 22:24:00,
2013-01-21 16:30:00,58.9,38.7,30.26,NE,39,2.0,6.0,47,0.00,,SKC,0.00,VWS V14.01,2013-01-21 22:30:00,
2013-01-21 16:36:00,58.6,37.9,30.26,NNE,31,0.0,7.0,46,0.00,,SKC,0.00,VWS V14.01,2013-01-21 22:36:00,
2013-01-21 16:42:00,58.3,38.7,30.26,NE,38,2.0,7.0,48,0.00,,SKC,0.00,VWS V14.01,2013-01-21 22:42:00,
2013-01-21 16:48:00,58.3,39.2,30.26,NNW,336,0.0,7.0,49,0.00,,SKC,0.00,VWS V14.01,2013-01-21 22:48:00,
2013-01-21 16:54:00,58.2,38.1,30.26,NW,314,1.0,7.0,47,0.00,,SKC,0.00,VWS V14.01,2013-01-21 22:54:00,
2013-01-21 17:00:00,58.0,38.4,30.26,NW,325,1.0,7.0,48,0.00,,SKC,0.00,VWS V14.01,2013-01-21 23:00:00,
2013-01-21 17:06:00,58.1,39.1,30.26,North,360,1.0,4.0,49,0.00,,SKC,0.00,VWS V14.01,2013-01-21 23:06:00,
2013-01-21 17:12:00,57.8,39.3,30.26,NE,38,3.0,5.0,50,0.00,,SKC,0.00,VWS V14.01,2013-01-21 23:12:00,
2013-01-21 17:18:00,57.3,39.3,30.26,ENE,59,0.0,5.0,51,0.00,,SKC,0.00,VWS V14.01,2013-01-21 23:18:00,
2013-01-21 17:24:00,57.1,39.2,30.26,NE,38,1.0,5.0,51,0.00,,SKC,0.00,VWS V14.01,2013-01-21 23:24:00,
2013-01-21 17:30:00,56.6,39.2,30.26,NNE,30,1.0,5.0,52,0.00,,SKC,0.00,VWS V14.01,2013-01-21 23:30:00,
2013-01-21 17:36:00,56.2,39.3,30.26,NNE,17,1.0,2.0,53,0.00,,SKC,0.00,VWS V14.01,2013-01-21 23:36:00,
2013-01-21 17:42:00,55.8,39.4,30.26,North,355,0.0,2.0,54,0.00,,SKC,0.00,VWS V14.01,2013-01-21 23:42:00,
2013-01-21 17:48:00,55.4,39.0,30.26,NNW,336,0.0,2.0,54,0.00,,SKC,0.00,VWS V14.01,2013-01-21 23:48:00,
2013-01-21 17:54:00,54.9,39.0,30.26,WNW,292,1.0,2.0,55,0.00,,SKC,0.00,VWS V14.01,2013-01-21 23:54:00,
2013-01-21 18:00:00,54.2,38.4,30.26,NW,324,0.0,2.0,55,0.00,,SKC,0.00,VWS V14.01,2013-01-22 00:00:00,
2013-01-21 18:06:00,53.6,37.8,30.26,NW,325,0.0,3.0,55,0.00,,SKC,0.00,VWS V14.01,2013-01-22 00:06:00,
2013-01-21 18:12:00,53.1,38.3,30.27,NNW,327,1.0,3.0,57,0.00,,SKC,0.00,VWS V14.01,2013-01-22 00:12:00,
2013-01-21 18:18:00,52.6,38.3,30.27,NW,319,0.0,3.0,58,0.00,,SKC,0.00,VWS V14.01,2013-01-22 00:18:00,
2013-01-21 18:24:00,52.2,37.9,30.26,NW,311,1.0,3.0,58,0.00,,SKC,0.00,VWS V14.01,2013-01-22 00:24:00,
2013-01-21 18:30:00,51.9,38.0,30.26,NW,311,1.0,3.0,59,0.00,,SKC,0.00,VWS V14.01,2013-01-22 00:30:00,
2013-01-21 18:36:00,51.5,37.7,30.26,NW,312,0.0,3.0,59,0.00,,SKC,0.00,VWS V14.01,2013-01-22 00:36:00,
2013-01-21 18:42:00,51.2,37.8,30.26,NW,317,1.0,3.0,60,0.00,,SKC,0.00,VWS V14.01,2013-01-22 00:42:00,
2013-01-21 18:48:00,51.0,38.0,30.27,NW,317,1.0,3.0,61,0.00,,SKC,0.00,VWS V14.01,2013-01-22 00:48:00,
2013-01-21 18:54:00,50.8,37.8,30.27,NW,317,0.0,3.0,61,0.00,,SKC,0.00,VWS V14.01,2013-01-22 00:54:00,
2013-01-21 19:00:00,50.4,37.5,30.27,NW,317,0.0,3.0,61,0.00,,SKC,0.00,VWS V14.01,2013-01-22 01:00:00,
2013-01-21 19:06:00,50.2,37.7,30.27,NW,320,1.0,3.0,62,0.00,,SKC,0.00,VWS V14.01,2013-01-22 01:06:00,
2013-01-21 19:12:00,49.9,37.4,30.28,NNW,338,1.0,3.0,62,0.00,,SKC,0.00,VWS V14.01,2013-01-22 01:12:00,
2013-01-21 19:18:00,49.6,37.5,30.27,NNW,342,1.0,3.0,63,0.00,,SKC,0.00,VWS V14.01,2013-01-22 01:18:00,
2013-01-21 19:24:00,49.4,37.3,30.27,NNW,345,1.0,3.0,63,0.00,,SKC,0.00,VWS V14.01,2013-01-22 01:24:00,
2013-01-21 19:30:00,49.1,37.1,30.27,NNW,347,0.0,3.0,63,0.00,,SKC,0.00,VWS V14.01,2013-01-22 01:30:00,
2013-01-21 19:36:00,48.8,36.8,30.27,NW,320,0.0,2.0,63,0.00,,SKC,0.00,VWS V14.01,2013-01-22 01:36:00,
2013-01-21 19:42:00,48.6,36.6,30.27,NW,322,0.0,2.0,63,0.00,,SKC,0.00,VWS V14.01,2013-01-22 01:42:00,
2013-01-21 19:48:00,48.4,36.4,30.27,NNW,340,0.0,2.0,63,0.00,,SKC,0.00,VWS V14.01,2013-01-22 01:48:00,
2013-01-21 19:54:00,48.2,36.6,30.27,NW,318,1.0,2.0,64,0.00,,SKC,0.00,VWS V14.01,2013-01-22 01:54:00,
2013-01-21 20:00:00,48.0,36.8,30.27,NE,39,2.0,3.0,65,0.00,,SKC,0.00,VWS V14.01,2013-01-22 02:00:00,
2013-01-21 20:06:00,47.8,37.0,30.27,NNE,26,2.0,3.0,66,0.00,,SKC,0.00,VWS V14.01,2013-01-22 02:06:00,
2013-01-21 20:12:00,47.5,36.3,30.27,NE,43,1.0,4.0,65,0.00,,SKC,0.00,VWS V14.01,2013-01-22 02:12:00,
2013-01-21 20:18:00,47.3,36.2,30.27,North,360,2.0,4.0,65,0.00,,SKC,0.00,VWS V14.01,2013-01-22 02:18:00,
2013-01-21 20:24:00,47.1,35.6,30.28,NNE,30,2.0,4.0,64,0.00,,SKC,0.00,VWS V14.01,2013-01-22 02:24:00,
2013-01-21 20:30:00,46.9,35.0,30.28,ENE,57,1.0,4.0,63,0.00,,SKC,0.00,VWS V14.01,2013-01-22 02:30:00,
2013-01-21 20:36:00,46.7,34.4,30.28,NNE,24,0.0,2.0,62,0.00,,SKC,0.00,VWS V14.01,2013-01-22 02:36:00,
2013-01-21 20:42:00,46.5,34.2,30.28,NNE,22,0.0,2.0,62,0.00,,SKC,0.00,VWS V14.01,2013-01-22 02:42:00,
2013-01-21 20:48:00,46.0,34.1,30.29,NNE,22,1.0,2.0,63,0.00,,SKC,0.00,VWS V14.01,2013-01-22 02:48:00,
2013-01-21 20:54:00,45.8,33.9,30.29,NE,42,1.0,2.0,63,0.00,,SKC,0.00,VWS V14.01,2013-01-22 02:54:00,
2013-01-21 21:00:00,45.9,33.6,30.29,NE,53,1.0,3.0,62,0.00,,SKC,0.00,VWS V14.01,2013-01-22 03:00:00,
2013-01-21 21:06:00,45.9,33.6,30.29,NE,42,1.0,4.0,62,0.00,,SKC,0.00,VWS V14.01,2013-01-22 03:06:00,
2013-01-21 21:12:00,45.8,33.5,30.29,NNW,339,1.0,4.0,62,0.00,,SKC,0.00,VWS V14.01,2013-01-22 03:12:00,
2013-01-21 21:18:00,45.6,33.3,30.29,NNE,18,2.0,4.0,62,0.00,,SKC,0.00,VWS V14.01,2013-01-22 03:18:00,
2013-01-21 21:24:00,45.5,32.8,30.29,ENE,67,2.0,4.0,61,0.00,,SKC,0.00,VWS V14.01,2013-01-22 03:24:00,
2013-01-21 21:30:00,45.4,32.8,30.30,NNW,338,1.0,4.0,61,0.00,,SKC,0.00,VWS V14.01,2013-01-22 03:30:00,
2013-01-21 21:36:00,45.3,32.2,30.30,NW,317,2.0,4.0,60,0.00,,SKC,0.00,VWS V14.01,2013-01-22 03:36:00,
2013-01-21 21:42:00,45.1,32.1,30.30,WNW,302,2.0,4.0,60,0.00,,SKC,0.00,VWS V14.01,2013-01-22 03:42:00,
2013-01-21 21:48:00,45.0,32.0,30.30,NW,325,0.0,4.0,60,0.00,,SKC,0.00,VWS V14.01,2013-01-22 03:48:00,
2013-01-21 21:54:00,44.7,31.7,30.30,North,10,0.0,4.0,60,0.00,,SKC,0.00,VWS V14.01,2013-01-22 03:54:00,
2013-01-21 22:00:00,44.4,31.4,30.31,NNW,336,0.0,4.0,60,0.00,,SKC,0.00,VWS V14.01,2013-01-22 04:00:00,
2013-01-21 22:06:00,44.2,31.2,30.31,NE,42,1.0,4.0,60,0.00,,SKC,0.00,VWS V14.01,2013-01-22 04:06:00,
2013-01-21 22:12:00,44.0,30.6,30.31,NNE,32,2.0,5.0,59,0.00,,SKC,0.00,VWS V14.01,2013-01-22 04:12:00,
2013-01-21 22:18:00,43.8,30.8,30.31,North,5,4.0,5.0,60,0.00,,SKC,0.00,VWS V14.01,2013-01-22 04:18:00,
2013-01-21 22:24:00,43.6,30.2,30.31,NNE,16,1.0,5.0,59,0.00,,SKC,0.00,VWS V14.01,2013-01-22 04:24:00,
2013-01-21 22:30:00,43.3,30.0,30.31,North,5,1.0,5.0,59,0.00,,SKC,0.00,VWS V14.01,2013-01-22 04:30:00,
2013-01-21 22:37:00,43.1,29.8,30.31,North,5,1.0,3.0,59,0.00,,SKC,0.00,VWS V14.01,2013-01-22 04:37:00,
2013-01-21 22:43:00,42.9,30.0,30.31,North,355,0.0,4.0,60,0.00,,SKC,0.00,VWS V14.01,2013-01-22 04:43:00,
2013-01-21 22:49:00,42.8,29.9,30.31,ENE,65,3.0,4.0,60,0.00,,SKC,0.00,VWS V14.01,2013-01-22 04:49:00,
2013-01-21 22:55:00,42.6,29.7,30.31,NE,37,2.0,4.0,60,0.00,,SKC,0.00,VWS V14.01,2013-01-22 04:55:00,
2013-01-21 23:00:00,42.4,29.9,30.31,North,9,1.0,4.0,61,0.00,,SKC,0.00,VWS V14.01,2013-01-22 05:00:00,
2013-01-21 23:01:00,42.4,29.9,30.31,North,9,1.0,4.0,61,0.00,,SKC,0.00,VWS V14.01,2013-01-22 05:01:00,
2013-01-21 23:04:00,42.2,29.7,30.31,NNE,12,1.0,2.0,61,0.00,,SKC,0.00,VWS V14.01,2013-01-22 05:04:00,
2013-01-21 23:07:00,42.0,29.5,30.31,NE,42,1.0,2.0,61,0.00,,SKC,0.00,VWS V14.01,2013-01-22 05:07:00,
2013-01-21 23:13:00,41.6,29.6,30.31,NNE,28,1.0,2.0,62,0.00,,SKC,0.00,VWS V14.01,2013-01-22 05:13:00,
2013-01-21 23:19:00,41.4,29.0,30.31,NNE,18,0.0,2.0,61,0.00,,SKC,0.00,VWS V14.01,2013-01-22 05:19:00,
2013-01-21 23:22:00,41.3,29.3,30.31,NNE,18,1.0,2.0,62,0.00,,SKC,0.00,VWS V14.01,2013-01-22 05:22:00,
2013-01-21 23:28:00,41.2,28.8,30.31,North,10,1.0,3.0,61,0.00,,SKC,0.00,VWS V14.01,2013-01-22 05:28:00,
2013-01-21 23:30:00,41.2,28.8,30.31,NNE,17,2.0,3.0,61,0.00,,SKC,0.00,VWS V14.01,2013-01-22 05:30:00,
2013-01-21 23:34:00,41.2,28.8,30.31,NNE,21,2.0,3.0,61,0.00,,SKC,0.00,VWS V14.01,2013-01-22 05:34:00,
2013-01-21 23:40:00,41.2,28.8,30.31,NNE,22,1.0,3.0,61,0.00,,SKC,0.00,VWS V14.01,2013-01-22 05:40:00,
2013-01-21 23:46:00,40.9,28.5,30.30,North,355,1.0,3.0,61,0.00,,SKC,0.00,VWS V14.01,2013-01-22 05:46:00,
2013-01-21 23:52:00,40.7,28.7,30.30,North,5,0.0,3.0,62,0.00,,SKC,0.00,VWS V14.01,2013-01-22 05:52:00,
2013-01-21 23:58:00,40.5,28.5,30.30,NE,34,0.0,3.0,62,0.00,,SKC,0.00,VWS V14.01,2013-01-22 05:58:00,